contact:dominique.lefevre@mio.osupytheas.fr, maurice.libes@osupytheas.fr, didier.mallarino@osupytheas.fr
Project:EMSO http://www.emso-fr.org/EMSO-France
Depth: 2436.0 m
Title:EMSO Ligure Ouest : Data MII capteur MICROCAT
DateTime_Computer,Latitude,Longitude,Temperature,Conductivity,Pressure,DateTime_Instrument
DateTime_Computer,Latitude,Longitude,degC,S m-1,dbar,DateTime_Instrument
2019-11-23T00:01:08Z,42.805,6.029,13.2957,4.59960,2469.923,2019-11-23T02:01:36Z
2019-11-23T00:04:11Z,42.805,6.029,13.2960,4.59960,2469.876,2019-11-23T02:04:39Z
2019-11-23T00:07:14Z,42.805,6.029,13.2961,4.59958,2469.914,2019-11-23T02:07:42Z
2019-11-23T00:10:17Z,42.805,6.029,13.2958,4.59959,2469.9,2019-11-23T02:10:46Z
2019-11-23T00:13:21Z,42.805,6.029,13.2957,4.59958,2469.937,2019-11-23T02:13:49Z
2019-11-23T00:16:24Z,42.805,6.029,13.2959,4.59960,2469.9,2019-11-23T02:16:52Z
2019-11-23T00:19:27Z,42.805,6.029,13.2957,4.59961,2469.937,2019-11-23T02:19:55Z
2019-11-23T00:22:30Z,42.805,6.029,13.2958,4.59959,2469.923,2019-11-23T02:22:58Z
2019-11-23T00:25:33Z,42.805,6.029,13.2960,4.59960,2469.914,2019-11-23T02:26:02Z
2019-11-23T00:28:37Z,42.805,6.029,13.2957,4.59958,2469.937,2019-11-23T02:29:05Z
2019-11-23T00:31:40Z,42.805,6.029,13.2961,4.59961,2469.909,2019-11-23T02:32:08Z
2019-11-23T00:34:43Z,42.805,6.029,13.2959,4.59959,2469.96,2019-11-23T02:35:11Z
2019-11-23T00:37:46Z,42.805,6.029,13.2959,4.59961,2469.923,2019-11-23T02:38:15Z
2019-11-23T00:40:49Z,42.805,6.029,13.2957,4.59960,2469.923,2019-11-23T02:41:18Z
2019-11-23T00:43:53Z,42.805,6.029,13.2959,4.59961,2469.937,2019-11-23T02:44:21Z
2019-11-23T00:46:56Z,42.805,6.029,13.2958,4.59961,2469.9,2019-11-23T02:47:24Z
2019-11-23T00:49:59Z,42.805,6.029,13.2962,4.59958,2469.923,2019-11-23T02:50:27Z
2019-11-23T00:53:02Z,42.805,6.029,13.2956,4.59961,2469.947,2019-11-23T02:53:31Z
2019-11-23T00:56:06Z,42.805,6.029,13.2959,4.59961,2469.96,2019-11-23T02:56:34Z
2019-11-23T00:59:09Z,42.805,6.029,13.2959,4.59959,2469.923,2019-11-23T02:59:37Z
2019-11-23T01:02:12Z,42.805,6.029,13.2959,4.59960,2469.947,2019-11-23T03:02:40Z
2019-11-23T01:05:15Z,42.805,6.029,13.2956,4.59960,2469.937,2019-11-23T03:05:43Z
2019-11-23T01:08:18Z,42.805,6.029,13.2958,4.59959,2469.947,2019-11-23T03:08:47Z
2019-11-23T01:11:22Z,42.805,6.029,13.2959,4.59961,2469.933,2019-11-23T03:11:50Z
2019-11-23T01:14:25Z,42.805,6.029,13.2960,4.59959,2469.947,2019-11-23T03:14:53Z
2019-11-23T01:17:28Z,42.805,6.029,13.2959,4.59959,2469.947,2019-11-23T03:17:56Z
2019-11-23T01:20:31Z,42.805,6.029,13.2958,4.59961,2469.947,2019-11-23T03:21:00Z
2019-11-23T01:23:34Z,42.805,6.029,13.2962,4.59961,2469.984,2019-11-23T03:24:03Z
2019-11-23T01:26:38Z,42.805,6.029,13.2959,4.59960,2469.947,2019-11-23T03:27:06Z
2019-11-23T01:29:41Z,42.805,6.029,13.2962,4.59958,2469.984,2019-11-23T03:30:09Z
2019-11-23T01:32:44Z,42.805,6.029,13.2959,4.59961,2469.947,2019-11-23T03:33:12Z
2019-11-23T01:35:47Z,42.805,6.029,13.2960,4.59961,2469.96,2019-11-23T03:36:16Z
2019-11-23T01:38:50Z,42.805,6.029,13.2959,4.59960,2469.97,2019-11-23T03:39:19Z
2019-11-23T01:41:54Z,42.805,6.029,13.2957,4.59959,2469.97,2019-11-23T03:42:22Z
2019-11-23T01:44:57Z,42.805,6.029,13.2958,4.59958,2469.984,2019-11-23T03:45:25Z
2019-11-23T01:48:00Z,42.805,6.029,13.2960,4.59960,2469.984,2019-11-23T03:48:28Z
2019-11-23T01:51:03Z,42.805,6.029,13.2958,4.59958,2470.007,2019-11-23T03:51:32Z
2019-11-23T01:54:06Z,42.805,6.029,13.2962,4.59961,2469.96,2019-11-23T03:54:35Z
2019-11-23T01:57:10Z,42.805,6.029,13.2959,4.59960,2470.017,2019-11-23T03:57:38Z
2019-11-23T02:00:13Z,42.805,6.029,13.2959,4.59958,2469.984,2019-11-23T04:00:41Z
2019-11-23T02:03:16Z,42.805,6.029,13.2958,4.59960,2469.97,2019-11-23T04:03:44Z
2019-11-23T02:06:19Z,42.805,6.029,13.2960,4.59958,2469.984,2019-11-23T04:06:48Z
2019-11-23T02:09:22Z,42.805,6.029,13.2958,4.59960,2470.017,2019-11-23T04:09:51Z
2019-11-23T02:12:26Z,42.805,6.029,13.2958,4.59958,2469.97,2019-11-23T04:12:54Z
2019-11-23T02:15:29Z,42.805,6.029,13.2957,4.59959,2470.007,2019-11-23T04:15:57Z
2019-11-23T02:18:32Z,42.805,6.029,13.2956,4.59959,2469.993,2019-11-23T04:19:00Z
2019-11-23T02:21:35Z,42.805,6.029,13.2962,4.59961,2470.017,2019-11-23T04:22:04Z
2019-11-23T02:24:38Z,42.805,6.029,13.2959,4.59960,2470.007,2019-11-23T04:25:07Z
2019-11-23T02:27:42Z,42.805,6.029,13.2960,4.59960,2470.017,2019-11-23T04:28:10Z
2019-11-23T02:30:45Z,42.805,6.029,13.2959,4.59960,2469.993,2019-11-23T04:31:13Z
2019-11-23T02:33:48Z,42.805,6.029,13.2957,4.59959,2470.017,2019-11-23T04:34:16Z
2019-11-23T02:36:51Z,42.805,6.029,13.2957,4.59961,2470.017,2019-11-23T04:37:20Z
2019-11-23T02:39:54Z,42.805,6.029,13.2961,4.59960,2469.993,2019-11-23T04:40:23Z
2019-11-23T02:42:58Z,42.805,6.029,13.2957,4.59959,2469.993,2019-11-23T04:43:26Z
2019-11-23T02:46:01Z,42.805,6.029,13.2961,4.59959,2470.063,2019-11-23T04:46:29Z
2019-11-23T02:49:04Z,42.805,6.029,13.2961,4.59962,2469.97,2019-11-23T04:49:32Z
2019-11-23T02:52:07Z,42.805,6.029,13.2959,4.59959,2470.063,2019-11-23T04:52:36Z
2019-11-23T02:55:11Z,42.805,6.029,13.2962,4.59959,2470.04,2019-11-23T04:55:39Z
2019-11-23T02:58:14Z,42.805,6.029,13.2957,4.59961,2470.04,2019-11-23T04:58:42Z
2019-11-23T03:01:17Z,42.805,6.029,13.2962,4.59958,2469.993,2019-11-23T05:01:46Z
2019-11-23T03:04:20Z,42.805,6.029,13.2960,4.59960,2470.017,2019-11-23T05:04:49Z
2019-11-23T03:07:24Z,42.805,6.029,13.2958,4.59961,2470.077,2019-11-23T05:07:52Z
2019-11-23T03:10:27Z,42.805,6.029,13.2958,4.59961,2470.063,2019-11-23T05:10:55Z
2019-11-23T03:13:30Z,42.805,6.029,13.2957,4.59961,2470.063,2019-11-23T05:13:58Z
2019-11-23T03:16:33Z,42.805,6.029,13.2959,4.59961,2470.053,2019-11-23T05:17:01Z
2019-11-23T03:19:36Z,42.805,6.029,13.2961,4.59961,2470.053,2019-11-23T05:20:05Z
2019-11-23T03:22:40Z,42.805,6.029,13.2958,4.59960,2470.04,2019-11-23T05:23:08Z
2019-11-23T03:25:43Z,42.805,6.029,13.2958,4.59961,2470.063,2019-11-23T05:26:11Z
2019-11-23T03:28:46Z,42.805,6.029,13.2961,4.59960,2470.053,2019-11-23T05:29:14Z
2019-11-23T03:31:49Z,42.805,6.029,13.2959,4.59960,2470.04,2019-11-23T05:32:17Z
2019-11-23T03:34:52Z,42.805,6.029,13.2964,4.59960,2470.053,2019-11-23T05:35:21Z
2019-11-23T03:37:56Z,42.805,6.029,13.2962,4.59960,2470.063,2019-11-23T05:38:24Z
2019-11-23T03:40:59Z,42.805,6.029,13.2960,4.59961,2470.04,2019-11-23T05:41:27Z
2019-11-23T03:44:02Z,42.805,6.029,13.2963,4.59961,2470.063,2019-11-23T05:44:30Z
2019-11-23T03:47:05Z,42.805,6.029,13.2960,4.59961,2470.077,2019-11-23T05:47:34Z
2019-11-23T03:50:08Z,42.805,6.029,13.2961,4.59961,2470.04,2019-11-23T05:50:37Z
2019-11-23T03:53:12Z,42.805,6.029,13.2958,4.59960,2470.04,2019-11-23T05:53:40Z
2019-11-23T03:56:15Z,42.805,6.029,13.2958,4.59960,2470.077,2019-11-23T05:56:43Z
2019-11-23T03:59:18Z,42.805,6.029,13.2961,4.59961,2470.1,2019-11-23T05:59:46Z
2019-11-23T04:02:21Z,42.805,6.029,13.2959,4.59961,2470.063,2019-11-23T06:02:50Z
2019-11-23T04:05:24Z,42.805,6.029,13.2957,4.59959,2470.04,2019-11-23T06:05:53Z
2019-11-23T04:08:27Z,42.805,6.029,13.2958,4.59960,2470.077,2019-11-23T06:08:56Z
2019-11-23T04:11:31Z,42.805,6.029,13.2961,4.59961,2470.077,2019-11-23T06:11:59Z
2019-11-23T04:14:34Z,42.805,6.029,13.2962,4.59961,2470.04,2019-11-23T06:15:02Z
2019-11-23T04:17:37Z,42.805,6.029,13.2959,4.59961,2470.04,2019-11-23T06:18:05Z
2019-11-23T04:20:40Z,42.805,6.029,13.2957,4.59961,2470.053,2019-11-23T06:21:09Z
2019-11-23T04:23:43Z,42.805,6.029,13.2957,4.59961,2470.063,2019-11-23T06:24:12Z
2019-11-23T04:26:47Z,42.805,6.029,13.2957,4.59960,2470.077,2019-11-23T06:27:15Z
2019-11-23T04:29:50Z,42.805,6.029,13.2959,4.59960,2470.077,2019-11-23T06:30:18Z
2019-11-23T04:32:53Z,42.805,6.029,13.2961,4.59961,2470.077,2019-11-23T06:33:21Z
2019-11-23T04:35:56Z,42.805,6.029,13.2960,4.59960,2470.04,2019-11-23T06:36:25Z
2019-11-23T04:38:59Z,42.805,6.029,13.2959,4.59960,2470.063,2019-11-23T06:39:28Z
2019-11-23T04:42:03Z,42.805,6.029,13.2961,4.59960,2470.087,2019-11-23T06:42:31Z
2019-11-23T04:45:06Z,42.805,6.029,13.2961,4.59961,2470.063,2019-11-23T06:45:34Z
2019-11-23T04:48:09Z,42.805,6.029,13.2960,4.59962,2470.063,2019-11-23T06:48:37Z
2019-11-23T04:51:12Z,42.805,6.029,13.2964,4.59962,2470.077,2019-11-23T06:51:41Z
2019-11-23T04:54:15Z,42.805,6.029,13.2961,4.59961,2470.077,2019-11-23T06:54:44Z
2019-11-23T04:57:19Z,42.805,6.029,13.2960,4.59961,2470.077,2019-11-23T06:57:47Z
2019-11-23T05:00:22Z,42.805,6.029,13.2957,4.59964,2470.063,2019-11-23T07:00:50Z
2019-11-23T05:03:25Z,42.805,6.029,13.2961,4.59961,2470.053,2019-11-23T07:03:53Z
2019-11-23T05:06:28Z,42.805,6.029,13.2958,4.59960,2470.087,2019-11-23T07:06:57Z
2019-11-23T05:09:31Z,42.805,6.029,13.2964,4.59960,2470.063,2019-11-23T07:10:00Z
2019-11-23T05:12:35Z,42.805,6.029,13.2958,4.59962,2470.077,2019-11-23T07:13:03Z
2019-11-23T05:15:38Z,42.805,6.029,13.2959,4.59961,2470.077,2019-11-23T07:16:06Z
2019-11-23T05:18:41Z,42.805,6.029,13.2956,4.59960,2470.063,2019-11-23T07:19:09Z
2019-11-23T05:21:44Z,42.805,6.029,13.2958,4.59962,2470.063,2019-11-23T07:22:13Z
2019-11-23T05:24:47Z,42.805,6.029,13.2962,4.59963,2470.087,2019-11-23T07:25:16Z
2019-11-23T05:27:51Z,42.805,6.029,13.2962,4.59961,2470.053,2019-11-23T07:28:19Z
2019-11-23T05:30:54Z,42.805,6.029,13.2961,4.59960,2470.063,2019-11-23T07:31:22Z
2019-11-23T05:33:57Z,42.805,6.029,13.2960,4.59960,2470.053,2019-11-23T07:34:25Z
2019-11-23T05:37:00Z,42.805,6.029,13.2958,4.59961,2470.063,2019-11-23T07:37:29Z
2019-11-23T05:40:03Z,42.805,6.029,13.2962,4.59961,2470.063,2019-11-23T07:40:32Z
2019-11-23T05:43:07Z,42.805,6.029,13.2959,4.59962,2470.1,2019-11-23T07:43:35Z
2019-11-23T05:46:10Z,42.805,6.029,13.2961,4.59961,2470.063,2019-11-23T07:46:38Z
2019-11-23T05:49:13Z,42.805,6.029,13.2959,4.59961,2470.087,2019-11-23T07:49:41Z
2019-11-23T05:52:16Z,42.805,6.029,13.2964,4.59961,2470.063,2019-11-23T07:52:45Z
2019-11-23T05:55:20Z,42.805,6.029,13.2963,4.59960,2470.053,2019-11-23T07:55:48Z
2019-11-23T05:58:23Z,42.805,6.029,13.2957,4.59961,2470.063,2019-11-23T07:58:51Z
2019-11-23T06:01:26Z,42.805,6.029,13.2959,4.59961,2470.063,2019-11-23T08:01:54Z
2019-11-23T06:04:29Z,42.805,6.029,13.2961,4.59960,2470.1,2019-11-23T08:04:58Z
2019-11-23T06:07:32Z,42.805,6.029,13.2961,4.59960,2470.063,2019-11-23T08:08:01Z
2019-11-23T06:10:36Z,42.805,6.029,13.2958,4.59960,2470.063,2019-11-23T08:11:04Z
2019-11-23T06:13:39Z,42.805,6.029,13.2960,4.59961,2470.04,2019-11-23T08:14:07Z
2019-11-23T06:16:42Z,42.805,6.029,13.2961,4.59961,2470.017,2019-11-23T08:17:10Z
2019-11-23T06:19:45Z,42.805,6.029,13.2956,4.59961,2470.063,2019-11-23T08:20:13Z
2019-11-23T06:22:48Z,42.805,6.029,13.2960,4.59960,2470.087,2019-11-23T08:23:17Z
2019-11-23T06:25:52Z,42.805,6.029,13.2961,4.59963,2470.077,2019-11-23T08:26:20Z
2019-11-23T06:28:55Z,42.805,6.029,13.2957,4.59961,2470.04,2019-11-23T08:29:23Z
2019-11-23T06:31:58Z,42.805,6.029,13.2961,4.59961,2470.063,2019-11-23T08:32:26Z
2019-11-23T06:35:01Z,42.805,6.029,13.2960,4.59961,2470.077,2019-11-23T08:35:29Z
2019-11-23T06:38:04Z,42.805,6.029,13.2960,4.59960,2470.053,2019-11-23T08:38:33Z
2019-11-23T06:41:07Z,42.805,6.029,13.2963,4.59960,2470.053,2019-11-23T08:41:36Z
2019-11-23T06:44:11Z,42.805,6.029,13.2963,4.59961,2470.04,2019-11-23T08:44:39Z
2019-11-23T06:47:14Z,42.805,6.029,13.2961,4.59961,2470.053,2019-11-23T08:47:42Z
2019-11-23T06:50:17Z,42.805,6.029,13.2961,4.59960,2470.063,2019-11-23T08:50:46Z
2019-11-23T06:53:20Z,42.805,6.029,13.2962,4.59961,2470.04,2019-11-23T08:53:49Z
2019-11-23T06:56:24Z,42.805,6.029,13.2957,4.59960,2470.03,2019-11-23T08:56:52Z
2019-11-23T06:59:27Z,42.805,6.029,13.2961,4.59961,2470.053,2019-11-23T08:59:55Z
2019-11-23T07:02:30Z,42.805,6.029,13.2966,4.59960,2470.03,2019-11-23T09:02:58Z
2019-11-23T07:05:33Z,42.805,6.029,13.2958,4.59962,2470.063,2019-11-23T09:06:02Z
2019-11-23T07:08:36Z,42.805,6.029,13.2957,4.59962,2470.1,2019-11-23T09:09:05Z
2019-11-23T07:11:40Z,42.805,6.029,13.2959,4.59961,2470.04,2019-11-23T09:12:08Z
2019-11-23T07:14:43Z,42.805,6.029,13.2961,4.59960,2470.053,2019-11-23T09:15:11Z
2019-11-23T07:17:46Z,42.805,6.029,13.2959,4.59958,2470.04,2019-11-23T09:18:14Z
2019-11-23T07:20:49Z,42.805,6.029,13.2961,4.59959,2470.017,2019-11-23T09:21:18Z
2019-11-23T07:23:52Z,42.805,6.029,13.2961,4.59962,2469.993,2019-11-23T09:24:21Z
2019-11-23T07:26:56Z,42.805,6.029,13.2962,4.59961,2470.04,2019-11-23T09:27:24Z
2019-11-23T07:29:59Z,42.805,6.029,13.2961,4.59959,2470.03,2019-11-23T09:30:27Z
2019-11-23T07:33:02Z,42.805,6.029,13.2961,4.59962,2470.063,2019-11-23T09:33:30Z
2019-11-23T07:36:05Z,42.805,6.029,13.2962,4.59961,2470.053,2019-11-23T09:36:33Z
2019-11-23T07:39:08Z,42.805,6.029,13.2959,4.59960,2470.053,2019-11-23T09:39:37Z
2019-11-23T07:42:11Z,42.805,6.029,13.2961,4.59961,2470.017,2019-11-23T09:42:40Z
2019-11-23T07:45:15Z,42.805,6.029,13.2959,4.59961,2470.03,2019-11-23T09:45:43Z
2019-11-23T07:48:18Z,42.805,6.029,13.2961,4.59961,2470.04,2019-11-23T09:48:46Z
2019-11-23T07:51:21Z,42.805,6.029,13.2963,4.59960,2470.03,2019-11-23T09:51:49Z
2019-11-23T07:54:24Z,42.805,6.029,13.2959,4.59962,2470.063,2019-11-23T09:54:53Z
2019-11-23T07:57:27Z,42.805,6.029,13.2959,4.59965,2470.03,2019-11-23T09:57:56Z
2019-11-23T08:00:31Z,42.805,6.029,13.2961,4.59961,2470.03,2019-11-23T10:00:59Z
2019-11-23T08:03:34Z,42.805,6.029,13.2957,4.59962,2470.017,2019-11-23T10:04:02Z
2019-11-23T08:06:37Z,42.805,6.029,13.2957,4.59961,2470.03,2019-11-23T10:07:05Z
2019-11-23T08:09:40Z,42.805,6.029,13.2961,4.59961,2470.04,2019-11-23T10:10:09Z
2019-11-23T08:12:43Z,42.805,6.029,13.2960,4.59961,2470.03,2019-11-23T10:13:12Z
2019-11-23T08:15:47Z,42.805,6.029,13.2961,4.59961,2470.007,2019-11-23T10:16:15Z
2019-11-23T08:18:50Z,42.805,6.029,13.2959,4.59960,2470.017,2019-11-23T10:19:18Z
2019-11-23T08:21:53Z,42.805,6.029,13.2958,4.59960,2470.007,2019-11-23T10:22:22Z
2019-11-23T08:24:56Z,42.805,6.029,13.2961,4.59961,2470.007,2019-11-23T10:25:25Z
2019-11-23T08:28:00Z,42.805,6.029,13.2961,4.59961,2470.017,2019-11-23T10:28:28Z
2019-11-23T08:31:03Z,42.805,6.029,13.2958,4.59961,2470.03,2019-11-23T10:31:31Z
2019-11-23T08:34:06Z,42.805,6.029,13.2960,4.59961,2469.993,2019-11-23T10:34:34Z
2019-11-23T08:37:09Z,42.805,6.029,13.2962,4.59962,2470.03,2019-11-23T10:37:38Z
2019-11-23T08:40:12Z,42.805,6.029,13.2959,4.59961,2470.04,2019-11-23T10:40:41Z
2019-11-23T08:43:16Z,42.805,6.029,13.2960,4.59960,2469.993,2019-11-23T10:43:44Z
2019-11-23T08:46:19Z,42.805,6.029,13.2961,4.59963,2470.017,2019-11-23T10:46:47Z
2019-11-23T08:49:22Z,42.805,6.029,13.2960,4.59961,2469.993,2019-11-23T10:49:50Z
2019-11-23T08:52:25Z,42.805,6.029,13.2961,4.59960,2470.007,2019-11-23T10:52:54Z
2019-11-23T08:55:28Z,42.805,6.029,13.2960,4.59960,2470.007,2019-11-23T10:55:57Z
2019-11-23T08:58:32Z,42.805,6.029,13.2963,4.59960,2470.007,2019-11-23T10:59:00Z
2019-11-23T09:01:35Z,42.805,6.029,13.2961,4.59960,2469.993,2019-11-23T11:02:03Z
2019-11-23T09:04:38Z,42.805,6.029,13.2958,4.59961,2470.007,2019-11-23T11:05:06Z
2019-11-23T09:07:41Z,42.805,6.029,13.2963,4.59960,2470.017,2019-11-23T11:08:10Z
2019-11-23T09:10:45Z,42.805,6.029,13.2961,4.59962,2470.007,2019-11-23T11:11:13Z
2019-11-23T09:13:48Z,42.805,6.029,13.2964,4.59963,2469.984,2019-11-23T11:14:16Z
2019-11-23T09:16:51Z,42.805,6.029,13.2962,4.59961,2469.993,2019-11-23T11:17:19Z
2019-11-23T09:19:54Z,42.805,6.029,13.2960,4.59963,2470.03,2019-11-23T11:20:23Z
2019-11-23T09:22:57Z,42.805,6.029,13.2960,4.59961,2470.007,2019-11-23T11:23:26Z
2019-11-23T09:26:01Z,42.805,6.029,13.2961,4.59961,2469.97,2019-11-23T11:26:29Z
2019-11-23T09:29:04Z,42.805,6.029,13.2964,4.59962,2469.97,2019-11-23T11:29:32Z
2019-11-23T09:32:07Z,42.805,6.029,13.2961,4.59962,2469.993,2019-11-23T11:32:35Z
2019-11-23T09:35:10Z,42.805,6.029,13.2963,4.59961,2469.97,2019-11-23T11:35:39Z
2019-11-23T09:38:13Z,42.805,6.029,13.2959,4.59961,2469.97,2019-11-23T11:38:42Z
2019-11-23T09:41:17Z,42.805,6.029,13.2960,4.59961,2469.97,2019-11-23T11:41:45Z
2019-11-23T09:44:20Z,42.805,6.029,13.2958,4.59960,2469.984,2019-11-23T11:44:48Z
2019-11-23T09:47:23Z,42.805,6.029,13.2961,4.59960,2469.984,2019-11-23T11:47:51Z
2019-11-23T09:50:26Z,42.805,6.029,13.2963,4.59960,2470.017,2019-11-23T11:50:55Z
2019-11-23T09:53:29Z,42.805,6.029,13.2960,4.59960,2469.993,2019-11-23T11:53:58Z
2019-11-23T09:56:33Z,42.805,6.029,13.2961,4.59961,2469.993,2019-11-23T11:57:01Z
2019-11-23T09:59:36Z,42.805,6.029,13.2965,4.59961,2469.993,2019-11-23T12:00:04Z
2019-11-23T10:02:39Z,42.805,6.029,13.2958,4.59961,2469.984,2019-11-23T12:03:07Z
2019-11-23T10:05:42Z,42.805,6.029,13.2958,4.59961,2470.007,2019-11-23T12:06:11Z
2019-11-23T10:08:45Z,42.805,6.029,13.2962,4.59961,2470.017,2019-11-23T12:09:14Z
2019-11-23T10:11:49Z,42.805,6.029,13.2961,4.59959,2470.007,2019-11-23T12:12:17Z
2019-11-23T10:14:52Z,42.805,6.029,13.2958,4.59961,2470.007,2019-11-23T12:15:20Z
2019-11-23T10:17:55Z,42.805,6.029,13.2960,4.59960,2469.993,2019-11-23T12:18:23Z
2019-11-23T10:20:58Z,42.805,6.029,13.2960,4.59960,2470.007,2019-11-23T12:21:27Z
2019-11-23T10:24:01Z,42.805,6.029,13.2957,4.59961,2470.007,2019-11-23T12:24:30Z
2019-11-23T10:27:05Z,42.805,6.029,13.2958,4.59960,2470.017,2019-11-23T12:27:33Z
2019-11-23T10:30:08Z,42.805,6.029,13.2962,4.59961,2469.97,2019-11-23T12:30:36Z
2019-11-23T10:33:11Z,42.805,6.029,13.2963,4.59961,2469.993,2019-11-23T12:33:39Z
2019-11-23T10:36:14Z,42.805,6.029,13.2964,4.59960,2469.993,2019-11-23T12:36:43Z
2019-11-23T10:39:17Z,42.805,6.029,13.2958,4.59962,2469.993,2019-11-23T12:39:46Z
2019-11-23T10:42:21Z,42.805,6.029,13.2961,4.59961,2470.007,2019-11-23T12:42:49Z
2019-11-23T10:45:24Z,42.805,6.029,13.2962,4.59961,2469.947,2019-11-23T12:45:52Z
2019-11-23T10:48:27Z,42.805,6.029,13.2961,4.59961,2469.993,2019-11-23T12:48:56Z
2019-11-23T10:51:30Z,42.805,6.029,13.2958,4.59961,2469.97,2019-11-23T12:51:59Z
2019-11-23T10:54:34Z,42.805,6.029,13.2961,4.59962,2469.993,2019-11-23T12:55:02Z
2019-11-23T10:57:37Z,42.805,6.029,13.2965,4.59961,2469.984,2019-11-23T12:58:05Z
2019-11-23T11:00:40Z,42.805,6.029,13.2961,4.59962,2470.007,2019-11-23T13:01:08Z
2019-11-23T11:03:43Z,42.805,6.029,13.2965,4.59961,2470.007,2019-11-23T13:04:12Z
2019-11-23T11:06:46Z,42.805,6.029,13.2958,4.59964,2469.984,2019-11-23T13:07:15Z
2019-11-23T11:09:49Z,42.805,6.029,13.2963,4.59961,2469.97,2019-11-23T13:10:18Z
2019-11-23T11:12:53Z,42.805,6.029,13.2958,4.59962,2469.984,2019-11-23T13:13:21Z
2019-11-23T11:15:56Z,42.805,6.029,13.2965,4.59961,2469.979,2019-11-23T13:16:24Z
2019-11-23T11:18:59Z,42.805,6.029,13.2961,4.59963,2469.984,2019-11-23T13:19:27Z
2019-11-23T11:22:02Z,42.805,6.029,13.2962,4.59962,2469.96,2019-11-23T13:22:31Z
2019-11-23T11:25:05Z,42.805,6.029,13.2963,4.59964,2470.007,2019-11-23T13:25:34Z
2019-11-23T11:28:09Z,42.805,6.029,13.2961,4.59961,2469.984,2019-11-23T13:28:37Z
2019-11-23T11:31:13Z,42.805,6.029,13.2962,4.59961,2470.007,2019-11-23T13:31:41Z
2019-11-23T11:34:16Z,42.805,6.029,13.2961,4.59961,2469.97,2019-11-23T13:34:44Z
2019-11-23T11:37:19Z,42.805,6.029,13.2961,4.59964,2469.979,2019-11-23T13:37:47Z
2019-11-23T11:40:22Z,42.805,6.029,13.2962,4.59961,2469.984,2019-11-23T13:40:50Z
2019-11-23T11:43:25Z,42.805,6.029,13.2961,4.59961,2469.97,2019-11-23T13:43:54Z
2019-11-23T11:46:29Z,42.805,6.029,13.2962,4.59962,2469.993,2019-11-23T13:46:57Z
2019-11-23T11:49:32Z,42.805,6.029,13.2960,4.59964,2470.007,2019-11-23T13:50:00Z
2019-11-23T11:52:35Z,42.805,6.029,13.2963,4.59964,2469.984,2019-11-23T13:53:03Z
2019-11-23T11:55:38Z,42.805,6.029,13.2961,4.59963,2469.993,2019-11-23T13:56:06Z
2019-11-23T11:58:41Z,42.805,6.029,13.2956,4.59961,2469.993,2019-11-23T13:59:10Z
2019-11-23T12:01:44Z,42.805,6.029,13.2960,4.59960,2470.007,2019-11-23T14:02:13Z
2019-11-23T12:04:48Z,42.805,6.029,13.2958,4.59962,2470.007,2019-11-23T14:05:16Z
2019-11-23T12:07:51Z,42.805,6.029,13.2961,4.59963,2470.03,2019-11-23T14:08:19Z
2019-11-23T12:10:54Z,42.805,6.029,13.2960,4.59963,2470.007,2019-11-23T14:11:23Z
2019-11-23T12:13:57Z,42.805,6.029,13.2962,4.59962,2469.993,2019-11-23T14:14:26Z
2019-11-23T12:17:01Z,42.805,6.029,13.2958,4.59961,2469.984,2019-11-23T14:17:29Z
2019-11-23T12:20:04Z,42.805,6.029,13.2965,4.59962,2469.993,2019-11-23T14:20:32Z
2019-11-23T12:23:07Z,42.805,6.029,13.2964,4.59964,2470.017,2019-11-23T14:23:35Z
2019-11-23T12:26:10Z,42.805,6.029,13.2961,4.59964,2470.007,2019-11-23T14:26:39Z
2019-11-23T12:29:13Z,42.805,6.029,13.2958,4.59961,2470.017,2019-11-23T14:29:42Z
2019-11-23T12:32:17Z,42.805,6.029,13.2960,4.59964,2470.017,2019-11-23T14:32:45Z
2019-11-23T12:35:20Z,42.805,6.029,13.2958,4.59964,2469.97,2019-11-23T14:35:48Z
2019-11-23T12:38:23Z,42.805,6.029,13.2962,4.59962,2470.03,2019-11-23T14:38:51Z
2019-11-23T12:41:26Z,42.805,6.029,13.2959,4.59963,2469.993,2019-11-23T14:41:55Z
2019-11-23T12:44:29Z,42.805,6.029,13.2961,4.59966,2470.007,2019-11-23T14:44:58Z
2019-11-23T12:47:33Z,42.805,6.029,13.2963,4.59964,2470.017,2019-11-23T14:48:01Z
2019-11-23T12:50:36Z,42.805,6.029,13.2962,4.59963,2470.007,2019-11-23T14:51:04Z
2019-11-23T12:53:39Z,42.805,6.029,13.2963,4.59962,2470.04,2019-11-23T14:54:07Z
2019-11-23T12:56:42Z,42.805,6.029,13.2964,4.59962,2470.03,2019-11-23T14:57:11Z
2019-11-23T12:59:46Z,42.805,6.029,13.2965,4.59964,2470.053,2019-11-23T15:00:14Z
2019-11-23T13:02:49Z,42.805,6.029,13.2961,4.59963,2470.04,2019-11-23T15:03:17Z
2019-11-23T13:05:52Z,42.805,6.029,13.2963,4.59964,2470.03,2019-11-23T15:06:20Z
2019-11-23T13:08:55Z,42.805,6.029,13.2961,4.59963,2470.017,2019-11-23T15:09:24Z
2019-11-23T13:11:58Z,42.805,6.029,13.2962,4.59963,2470.04,2019-11-23T15:12:27Z
2019-11-23T13:15:02Z,42.805,6.029,13.2962,4.59964,2470.04,2019-11-23T15:15:30Z
2019-11-23T13:18:05Z,42.805,6.029,13.2963,4.59963,2470.04,2019-11-23T15:18:33Z
2019-11-23T13:21:08Z,42.805,6.029,13.2959,4.59964,2470.063,2019-11-23T15:21:36Z
2019-11-23T13:24:11Z,42.805,6.029,13.2961,4.59964,2470.04,2019-11-23T15:24:40Z
2019-11-23T13:27:15Z,42.805,6.029,13.2959,4.59966,2470.04,2019-11-23T15:27:43Z
2019-11-23T13:30:18Z,42.805,6.029,13.2964,4.59964,2470.053,2019-11-23T15:30:46Z
2019-11-23T13:33:21Z,42.805,6.029,13.2961,4.59964,2470.053,2019-11-23T15:33:49Z
2019-11-23T13:36:24Z,42.805,6.029,13.2961,4.59966,2470.04,2019-11-23T15:36:52Z
2019-11-23T13:39:27Z,42.805,6.029,13.2962,4.59966,2470.053,2019-11-23T15:39:56Z
2019-11-23T13:42:31Z,42.805,6.029,13.2964,4.59963,2470.077,2019-11-23T15:42:59Z
2019-11-23T13:45:34Z,42.805,6.029,13.2961,4.59964,2470.077,2019-11-23T15:46:02Z
2019-11-23T13:48:37Z,42.805,6.029,13.2962,4.59964,2470.1,2019-11-23T15:49:05Z
2019-11-23T13:51:40Z,42.805,6.029,13.2961,4.59965,2470.1,2019-11-23T15:52:08Z
2019-11-23T13:54:43Z,42.805,6.029,13.2962,4.59964,2470.1,2019-11-23T15:55:12Z
2019-11-23T13:57:47Z,42.805,6.029,13.2962,4.59965,2470.11,2019-11-23T15:58:15Z
2019-11-23T14:00:50Z,42.805,6.029,13.2959,4.59966,2470.087,2019-11-23T16:01:18Z
2019-11-23T14:03:53Z,42.805,6.029,13.2964,4.59964,2470.124,2019-11-23T16:04:21Z
2019-11-23T14:06:56Z,42.805,6.029,13.2966,4.59964,2470.11,2019-11-23T16:07:24Z
2019-11-23T14:09:59Z,42.805,6.029,13.2961,4.59964,2470.11,2019-11-23T16:10:28Z
2019-11-23T14:13:03Z,42.805,6.029,13.2960,4.59966,2470.087,2019-11-23T16:13:31Z
2019-11-23T14:16:06Z,42.805,6.029,13.2964,4.59965,2470.11,2019-11-23T16:16:34Z
2019-11-23T14:19:09Z,42.805,6.029,13.2962,4.59964,2470.063,2019-11-23T16:19:37Z
2019-11-23T14:22:12Z,42.805,6.029,13.2962,4.59965,2470.087,2019-11-23T16:22:40Z
2019-11-23T14:25:15Z,42.805,6.029,13.2962,4.59966,2470.133,2019-11-23T16:25:44Z
2019-11-23T14:28:19Z,42.805,6.029,13.2961,4.59966,2470.133,2019-11-23T16:28:47Z
2019-11-23T14:31:22Z,42.805,6.029,13.2963,4.59967,2470.124,2019-11-23T16:31:50Z
2019-11-23T14:34:25Z,42.805,6.029,13.2961,4.59964,2470.171,2019-11-23T16:34:53Z
2019-11-23T14:37:28Z,42.805,6.029,13.2958,4.59965,2470.124,2019-11-23T16:37:57Z
2019-11-23T14:40:31Z,42.805,6.029,13.2961,4.59966,2470.147,2019-11-23T16:41:00Z
2019-11-23T14:43:34Z,42.805,6.029,13.2961,4.59965,2470.133,2019-11-23T16:44:03Z
2019-11-23T14:46:38Z,42.805,6.029,13.2965,4.59966,2470.147,2019-11-23T16:47:06Z
2019-11-23T14:49:41Z,42.805,6.029,13.2959,4.59966,2470.11,2019-11-23T16:50:09Z
2019-11-23T14:52:44Z,42.805,6.029,13.2966,4.59966,2470.133,2019-11-23T16:53:13Z
2019-11-23T14:55:47Z,42.805,6.029,13.2966,4.59966,2470.133,2019-11-23T16:56:16Z
2019-11-23T14:58:51Z,42.805,6.029,13.2964,4.59966,2470.147,2019-11-23T16:59:19Z
2019-11-23T15:01:54Z,42.805,6.029,13.2963,4.59964,2470.133,2019-11-23T17:02:22Z